Theta_e
300 300 300 300 300 300 301 301 301 302 302 303 303 303 304 305 308 308 311 318 318 319 320 319 330 330 332 335 331 327 327 330 331 332 332 332 332 332 332 332 332 332 331 331 331
298 298 298 299 299 299 300 300 300 300 301 301 302 302 304 304 306 306 313 313 317 317 317 318 322 326 329 329 330 329 329 330 331 332 333 333 332 333 333 333 332 332 332 332 332
298 298 298 298 298 298 298 299 299 300 300 300 301 301 302 303 308 313 314 314 314 316 319 318 322 327 326 326 328 331 332 330 331 332 332 333 333 333 333 334 333 333 332 332 332
298 298 298 298 298 298 298 298 298 299 299 300 300 300 301 302 314 318 315 315 314 314 314 315 316 319 328 328 326 327 331 331 331 332 332 333 332 333 332 333 333 333 332 332 332
299 299 299 299 299 299 299 299 299 299 298 299 299 300 301 308 311 313 313 313 313 314 314 315 316 318 321 324 327 328 327 328 330 331 331 332 332 332 332 332 331 332 332 332 332
300 300 300 300 300 300 300 300 300 300 299 299 299 299 306 309 309 311 313 314 314 316 317 318 318 320 322 323 325 327 327 328 328 328 329 330 330 330 330 330 331 332 332 332 332
301 301 301 301 301 301 301 301 301 301 300 300 299 300 308 307 308 310 310 312 314 315 317 319 323 324 324 324 324 325 329 329 330 329 331 330 332 332 330 329 330 331 331 331 331
300 300 300 300 300 300 300 301 301 302 301 300 300 306 308 307 308 309 309 309 309 311 313 315 317 318 322 324 324 326 327 330 329 330 330 330 333 332 330 329 330 330 330 331 330
301 301 301 301 301 301 300 300 301 306 307 303 303 309 310 310 310 310 309 309 309 310 311 313 314 317 319 323 325 326 328 328 329 328 329 331 332 332 330 330 331 330 328 329 329
302 302 302 302 302 301 300 300 307 307 309 311 311 310 312 311 309 310 311 311 309 309 311 313 314 316 318 320 327 326 327 327 329 329 329 330 331 331 331 331 331 331 329 328 328
301 301 301 302 301 300 302 307 308 310 312 313 313 313 311 310 309 308 308 308 311 312 313 313 316 317 317 319 321 325 327 327 328 328 329 330 331 331 332 331 331 331 329 328 329
302 301 301 300 300 305 309 309 308 307 308 307 307 306 306 306 307 307 308 308 310 314 315 314 317 319 317 317 318 320 323 325 327 326 328 329 330 331 332 332 331 331 329 329 328
301 301 300 300 303 309 308 308 307 307 308 307 307 307 307 307 307 308 308 307 309 311 314 314 316 317 318 318 318 320 321 323 324 325 326 327 329 331 331 331 331 329 329 329 329
301 301 300 302 307 307 308 307 306 307 308 309 308 309 309 308 309 309 309 309 309 308 311 314 315 315 318 319 319 321 320 320 322 323 326 325 329 332 331 332 332 331 330 329 328
300 301 301 307 306 307 307 306 307 306 311 311 311 310 312 311 313 313 312 310 309 309 309 310 314 316 316 318 319 320 320 321 322 323 325 325 327 329 330 330 329 330 328 328 328
300 301 303 307 307 307 306 306 307 309 311 309 310 312 312 311 313 312 313 313 311 311 310 310 310 313 317 316 318 320 320 320 322 324 327 328 327 328 329 330 329 330 328 328 331
301 304 306 306 307 306 306 307 310 311 308 309 308 308 309 309 312 311 312 312 313 314 313 313 311 311 313 316 317 318 323 324 324 324 326 326 327 328 329 328 329 330 329 329 330
302 307 307 308 307 307 307 308 311 307 307 307 307 307 307 308 308 308 310 309 310 313 316 316 317 311 312 314 318 319 322 324 324 325 325 324 327 328 329 328 328 330 329 330 330
303 310 309 308 307 307 308 312 308 308 307 307 309 308 308 308 309 309 310 310 310 312 316 315 316 316 312 314 317 319 319 322 325 324 324 326 327 328 329 330 331 330 330 331 335
306 309 309 308 307 308 309 310 308 307 307 308 308 309 310 309 309 310 310 310 312 310 313 311 314 315 317 313 315 319 320 321 324 325 327 326 328 330 332 333 331 332 332 330 336
308 311 310 308 308 309 311 310 308 306 307 308 309 308 310 310 310 309 308 309 311 310 310 312 314 316 318 315 315 319 319 321 325 324 326 328 328 331 334 332 330 331 329 330 337
309 312 308 307 310 310 311 308 306 308 307 307 307 309 310 310 310 311 309 312 310 310 311 313 316 318 317 318 316 319 320 322 324 327 326 326 328 331 329 329 330 331 328 334 336
309 309 310 308 310 311 308 308 308 308 310 308 307 307 309 310 311 311 311 311 311 311 312 313 317 318 318 319 320 320 319 322 325 328 327 326 328 330 328 328 330 333 329 335 336
310 312 309 308 308 308 309 307 308 308 309 307 308 308 309 311 309 310 310 311 310 310 311 311 314 316 320 321 322 323 321 321 324 326 326 328 328 328 328 331 333 335 335 336 336
310 309 308 310 309 307 307 307 308 309 307 307 308 309 309 309 309 310 310 311 311 311 312 311 315 315 314 315 318 320 323 321 323 326 327 328 328 328 331 333 336 337 337 336 336
308 307 306 305 307 308 308 309 309 308 308 308 309 308 308 309 310 311 310 310 310 312 312 311 316 317 316 314 315 318 320 322 322 324 327 328 329 331 333 332 335 335 336 336 336
307 306 305 306 307 309 309 308 308 307 307 307 308 308 309 310 309 309 309 309 310 311 311 312 316 318 318 315 316 319 322 323 324 324 327 329 330 330 329 327 334 334 335 335 335
Wind_Speed
16 16 16 16 18 18 18 18 18 17 16 16 20 22 25 27 25 22 28 23 10 19 16 10 11 16 18 21 22 23 15 16 22 23 21 22 17 18 24 3 17 13 14 15 16
18 18 18 18 17 18 18 19 20 20 19 18 16 16 19 24 26 30 32 26 24 20 19 18 19 15 23 21 27 21 16 26 21 22 21 23 19 25 17 9 15 21 23 19 18
17 18 19 20 20 20 20 20 20 20 20 20 19 16 14 13 20 21 21 25 27 27 27 18 19 20 25 28 29 27 23 24 26 29 31 26 26 30 26 18 23 25 25 23 19
17 17 18 19 20 21 21 22 21 19 20 20 20 18 13 6 8 2 6 7 22 27 23 22 23 27 26 25 31 26 35 34 35 35 35 27 33 33 32 31 25 32 27 23 19
18 18 19 19 20 20 21 21 21 21 20 20 20 19 17 13 19 16 14 16 7 19 27 29 30 31 27 27 31 29 29 38 39 37 37 38 33 31 36 37 37 35 31 33 26
21 22 22 22 23 23 22 21 21 21 21 21 20 18 15 25 12 16 18 15 13 14 21 24 31 32 30 32 30 34 35 37 40 38 38 30 32 36 36 39 36 36 33 34 36
19 20 21 22 23 24 24 24 23 23 22 22 20 20 21 31 17 15 13 16 19 19 21 22 25 30 34 30 39 40 31 30 31 36 32 36 32 29 37 38 35 40 37 36 35
21 22 23 23 23 23 22 21 20 20 23 20 19 13 19 15 13 20 22 25 27 25 25 22 21 26 30 38 38 32 32 30 28 30 38 32 32 25 37 33 33 33 34 34 30
24 25 26 27 27 28 28 25 16 14 17 17 13 10 17 9 13 15 15 25 23 24 25 25 25 25 21 21 21 29 24 33 31 29 29 29 33 26 37 36 34 31 31 30 34
25 26 27 27 28 30 29 23 19 18 9 8 11 13 21 14 10 5 3 6 18 21 23 27 23 19 18 19 24 22 30 30 28 26 28 31 29 27 32 35 32 32 25 25 37
28 29 30 30 28 27 21 19 18 7 6 19 15 16 25 12 8 11 11 12 11 17 20 26 16 24 40 30 29 27 31 33 29 27 28 26 25 28 24 26 26 28 23 29 37
29 30 30 29 26 12 10 12 15 13 21 23 33 40 38 34 35 33 22 21 17 17 18 19 28 38 22 32 31 34 32 30 29 28 24 23 26 26 22 22 26 26 26 26 32
30 31 31 27 16 8 15 15 16 15 20 39 48 41 36 31 33 30 25 28 22 22 20 23 37 22 29 30 30 31 31 28 31 25 27 24 26 25 24 27 27 28 32 25 25
28 29 26 24 10 18 12 13 16 16 9 11 11 8 15 14 20 23 25 29 25 26 22 24 26 32 30 33 30 29 28 29 28 23 20 19 19 25 20 21 20 25 25 26 26
28 29 18 19 15 15 18 19 15 8 6 8 3 5 6 13 4 7 11 19 23 22 20 34 22 27 31 37 29 34 21 27 28 25 21 23 14 29 17 17 16 13 20 25 27
29 22 15 13 13 15 19 16 11 5 5 12 16 12 12 13 16 9 7 8 13 19 20 29 33 28 29 26 32 26 26 29 26 19 19 26 19 29 19 19 17 16 24 26 21
26 14 12 9 15 16 15 10 4 4 10 7 17 12 14 9 16 8 12 12 9 14 19 24 28 31 29 29 29 31 23 17 19 17 21 17 19 23 21 19 18 18 19 22 18
19 11 12 8 16 12 10 2 3 19 21 21 16 19 16 13 14 15 11 13 13 14 12 13 19 28 24 33 27 29 25 16 25 17 19 21 26 20 21 21 25 20 14 18 24
17 11 9 5 8 5 10 3 9 15 17 18 19 15 13 16 7 15 10 17 6 6 3 7 15 27 30 29 28 30 28 31 22 21 19 16 18 30 27 20 14 7 15 21 22
15 10 10 5 6 5 3 9 13 11 14 17 9 4 17 17 7 11 8 3 10 3 7 5 14 23 27 28 33 31 21 25 19 25 24 20 22 14 11 15 12 13 9 17 25
12 7 2 3 7 8 5 7 21 17 15 8 20 15 18 18 20 10 8 8 5 5 8 9 9 18 23 26 28 24 25 23 21 18 16 15 14 12 2 9 6 9 17 18 26
8 5 3 6 5 5 8 20 25 26 16 15 11 8 16 14 13 17 15 9 5 8 11 15 7 16 23 20 21 29 25 25 19 24 17 13 15 5 2 5 5 11 21 29 27
9 15 3 3 4 9 18 20 26 15 19 17 10 12 10 11 10 4 11 6 3 3 2 6 6 11 19 17 20 20 28 24 21 11 19 17 16 7 6 8 11 11 21 30 29
8 4 10 11 4 12 15 18 19 27 13 23 18 14 9 19 13 7 9 8 8 7 3 3 7 15 11 7 15 8 24 31 26 17 19 19 9 6 7 8 5 17 29 28 29
6 5 12 7 12 13 16 16 19 13 13 18 14 19 18 18 18 14 11 18 14 6 2 2 8 18 21 13 15 21 29 29 29 24 22 19 18 13 12 11 13 15 23 26 28
11 13 12 21 14 12 15 13 18 19 20 16 13 20 20 17 15 20 19 17 13 2 0 4 4 16 14 15 10 23 31 26 29 26 27 21 14 11 12 17 16 15 19 24 27
10 9 8 12 8 7 10 14 20 19 10 23 19 18 19 19 23 28 31 30 22 17 16 15 5 8 8 6 7 18 23 22 22 25 26 17 6 18 8 8 11 17 21 22 26
Wind_Direction
336 333 333 332 330 330 328 326 324 326 320 311 302 299 292 290 280 268 262 254 240 246 235 229 224 224 224 231 232 235 253 253 257 262 272 284 314 302 285 157 285 302 298 295 290
335 333 331 328 325 323 322 323 325 323 321 318 318 319 301 291 289 278 264 255 239 225 224 226 233 225 222 238 235 228 242 243 246 269 280 274 264 270 277 268 255 296 272 259 281
337 334 332 330 327 324 321 318 318 318 319 318 320 320 323 309 306 271 254 250 240 233 237 231 239 229 231 232 231 231 242 249 256 254 270 274 295 293 291 267 274 281 278 297 294
343 338 336 333 331 329 326 322 318 313 311 312 313 312 313 305 252 35 354 247 228 226 226 230 235 243 238 235 237 240 236 242 254 260 269 274 276 285 289 293 284 278 287 289 291
346 342 339 337 334 332 330 326 321 317 309 302 300 304 308 248 241 283 309 299 242 220 230 231 229 228 237 239 246 238 245 249 252 258 261 267 272 278 279 283 289 291 285 288 284
346 342 340 338 335 333 330 324 319 314 308 303 298 296 289 269 263 257 262 247 244 233 234 226 232 232 244 239 241 247 244 255 259 257 257 263 270 272 275 283 282 279 273 276 270
349 345 341 337 335 333 329 324 320 315 307 299 296 291 270 253 254 243 252 250 246 240 242 238 239 233 241 247 250 252 259 261 256 261 263 269 265 260 271 270 270 274 276 274 275
354 349 345 341 338 334 326 319 313 311 303 300 292 273 259 271 254 261 262 258 254 248 247 246 257 272 259 252 258 249 253 257 251 255 258 259 263 264 270 276 274 278 279 272 265
349 345 341 338 337 336 331 326 316 304 301 297 284 229 277 287 249 259 253 247 244 244 243 244 247 255 263 248 245 245 248 251 250 248 264 258 267 265 256 257 259 260 269 272 275
346 340 336 333 334 332 326 328 328 291 287 278 257 260 256 276 263 189 256 263 233 242 243 228 230 239 242 237 227 223 235 241 256 248 249 248 254 261 257 257 259 249 258 268 274
343 338 334 331 333 332 332 354 348 297 248 257 279 224 287 285 258 244 277 271 250 241 236 224 218 223 220 221 240 237 240 246 253 252 247 254 261 266 276 274 261 269 267 268 262
341 336 333 333 331 346 343 323 327 306 296 278 268 263 261 267 270 262 263 258 244 241 232 230 219 225 232 228 234 242 251 253 262 265 260 261 257 259 248 252 261 264 243 255 280
340 336 334 336 337 359 321 314 322 317 292 281 264 259 260 249 248 252 243 242 243 249 235 224 237 225 235 234 235 238 238 245 256 265 266 268 269 270 268 270 265 258 270 258 259
338 339 340 345 339 321 314 332 325 325 289 287 214 229 225 243 244 245 241 232 237 238 246 248 243 242 227 237 231 242 233 243 249 251 257 254 269 256 262 264 257 255 255 259 252
339 341 349 351 351 337 319 325 321 315 276 107 135 109 174 199 204 185 214 221 235 241 233 243 247 234 239 238 228 245 244 248 247 251 261 254 259 267 269 268 269 276 267 261 253
339 343 359 355 338 327 324 326 321 242 250 359 357 349 359 339 316 308 205 220 245 239 246 252 252 254 247 243 248 247 240 251 258 257 247 243 242 264 258 263 270 270 262 249 256
344 356 357 352 336 330 327 327 275 285 277 0 323 328 307 284 232 251 294 251 225 241 241 249 244 252 250 253 234 237 236 234 236 235 241 244 241 255 265 266 272 273 267 269 260
344 339 341 322 333 341 336 353 277 3 357 349 341 312 301 299 288 273 266 258 254 221 260 277 269 230 235 239 236 225 232 228 223 226 241 240 252 260 254 258 254 282 233 241 237
343 337 335 313 345 331 309 280 7 340 345 338 340 317 310 326 347 303 271 300 350 358 184 321 287 259 226 244 239 234 221 235 249 240 245 255 243 236 243 245 241 239 234 235 140
337 310 280 327 345 313 286 292 306 351 337 326 339 326 311 313 327 310 307 339 305 324 129 295 288 277 271 218 241 236 228 223 230 232 246 236 240 253 186 225 226 196 222 201 143
325 260 243 351 326 301 284 305 312 321 314 350 305 340 321 336 322 277 273 211 222 293 295 250 222 274 282 239 216 227 227 221 241 225 236 246 264 295 83 171 174 195 196 189 146
307 291 188 344 305 266 284 324 321 319 311 309 324 339 302 291 280 306 306 340 270 281 305 299 278 265 266 271 246 233 226 230 218 218 228 247 238 68 134 229 175 260 180 151 151
305 326 336 336 329 324 323 321 309 340 355 313 321 307 2 317 314 359 334 309 349 324 338 336 261 261 258 267 258 255 224 233 237 237 219 232 250 143 148 208 216 181 149 146 150
306 326 320 325 341 306 316 314 318 328 310 342 322 330 2 298 302 283 309 270 274 246 296 292 258 262 260 309 337 312 240 230 222 207 227 220 192 198 180 189 177 137 130 142 154
307 293 337 302 313 314 302 283 311 320 332 333 324 324 330 329 321 321 331 312 312 80 34 173 277 285 259 248 285 298 286 240 224 198 217 226 226 219 165 173 112 121 141 148 156
328 337 328 302 312 306 305 317 315 333 333 319 327 323 317 311 316 307 312 302 300 296 212 230 261 298 275 246 279 300 285 277 219 201 216 239 176 44 97 112 128 147 156 161 161
339 319 306 298 309 293 310 318 318 320 312 314 309 306 308 310 307 292 283 281 280 274 265 266 289 322 255 231 301 281 243 249 245 209 209 204 194 130 210 98 120 148 159 162 160